Regional Weather Roundup
Issued by NWS

Home | Current Version | Previous Version | Graphics & Text | Print | Product List | Glossary On
Versions: 1 2 3 4 5 6 7 8 9 10 11 12 13 14 15 16 17 18 19 20 21 22 23 24 25 26 27 28 29 30 31 32 33 34 35 36 37 38 39 40 41 42 43 44 45 46 47 48 49 50
000
ASUS43 KIND 280159
RWRIN

WEATHER ROUNDUP FOR INDIANA
NATIONAL WEATHER SERVICE INDIANAPOLIS IN
900 PM EST TUE JAN 27 2015

NOTE: "FAIR" INDICATES FEW OR NO CLOUDS BELOW 12,000 FEET WITH NO
SIGNIFICANT WEATHER AND/OR OBSTRUCTIONS TO VISIBILITY.

* - STATION DOES NOT REPORT WEATHER SUCH AS PRECIPITATION OR FOG.

+ - STATION NOT QUALITY CONTROLLED BY THE NATIONAL WEATHER SERVICE.
    USE DATA WITH CAUTION...ESPECIALLY DEWPOINT AND RELATIVE
    HUMIDITY OBSERVATIONS.

INZ001>003-010>013-019-020-280300-
NORTHWEST INDIANA

CITY           SKY/WX    TMP DP  RH WIND       PRES   REMARKS
GARY /AIRPORT/ PTCLDY    28  16  59 NE12      30.26S WCI  18
VALPARAISO     NOT AVBL

$$

LMZ046-743>745-280300-
SOUTHERN LAKE MICHIGAN

STATION/POSITION TIME  TEMP WIND        PRES
                       AIR  DIR/SP/G
                 (UTC) (F)  (DEG/KT/KT) (MB)
MICHIGAN CITY    0100   27  360/ 11/ 14   N/A

$$

INZ004-005-014>016-021>024-280300-
NORTH CENTRAL INDIANA

CITY           SKY/WX    TMP DP  RH WIND       PRES   REMARKS
ELKHART        CLEAR     19   7  58 CALM      30.24S
GOSHEN         CLEAR     20   9  62 NE3       30.23R
SOUTH BEND     CLEAR     19  11  70 N5        30.24S WCI  12

$$

INZ006>009-017-018-025>027-280300-
NORTHEAST INDIANA

CITY           SKY/WX    TMP DP  RH WIND       PRES   REMARKS
ANGOLA *+      CLEAR     14   9  79 CALM      30.21R
FORT WAYNE     CLEAR     16   9  74 NW3       30.23S

$$

INZ028-029-035-036-043>045-051>053-280300-
WEST CENTRAL INDIANA

CITY           SKY/WX    TMP DP  RH WIND       PRES   REMARKS
GREENCASTLE +  CLEAR     23  12  63 N3        30.24S
LAFAYETTE      CLEAR     20  15  81 CALM      30.25R
TERRE HAUTE    CLEAR     25  18  74 N5        30.26R WCI  19

$$

INZ030>032-037>040-046>048-054>057-064-065-280300-
CENTRAL INDIANA

CITY           SKY/WX    TMP DP  RH WIND       PRES   REMARKS
INDIANAPOLIS   CLEAR     21  11  65 N6        30.23R WCI  13
-EAGLE CREEK   CLEAR     22  12  65 CALM      30.23R
KOKOMO *+      CLEAR     18  10  73 CALM      30.24R
MT COMFORT *+  CLEAR     21  12  68 CALM      30.24R
SHELBYVILLE    CLEAR     23  15  71 NE6       30.23R WCI  16

$$

INZ033-034-041-042-049-050-058-059-280300-
EAST CENTRAL INDIANA

CITY           SKY/WX    TMP DP  RH WIND       PRES   REMARKS
MUNCIE         CLEAR     15  11  83 CALM      30.23R

$$

INZ060-061-067>069-081>083-085>088-280300-
SOUTHWEST INDIANA

CITY           SKY/WX    TMP DP  RH WIND       PRES   REMARKS
EVANSVILLE     CLOUDY    34  28  79 N6        30.25S WCI  29
HUNTINGBURG *+ CLOUDY    32  27  80 N3        30.24S

$$

INZ062-063-066-070>080-084-089>092-280300-
SOUTH CENTRAL AND SOUTHEAST INDIANA

CITY           SKY/WX    TMP DP  RH WIND       PRES   REMARKS
BLOOMINGTON    CLEAR     22  18  85 CALM      30.23R

$$



USA.gov is the U.S. government's official web portal to all federal, state and local government web resources and services.